EHI
0 0 0 0 0 0 0 0 0 0 0 0 1 3 2 2 5 7 6 4 3 3 2 2 4 4 3 1 1 2 3 4 4 5 4 2 1 0 1 0 0 0 1
0 0 0 0 0 0 0 0 0 0 0 0 0 1 1 1 3 5 5 5 5 3 1 2 4 4 3 1 0 1 2 2 3 5 4 2 0 1 2 1 1 1 1
0 0 0 0 0 0 0 0 0 0 0 0 0 1 1 1 2 4 6 7 7 4 1 2 3 4 3 2 1 1 1 0 1 3 2 1 0 2 4 3 2 2 2
0 0 0 0 0 0 0 0 0 0 0 0 1 2 3 3 4 5 6 9 9 5 3 2 3 3 4 4 3 2 1 0 0 1 1 0 0 2 4 4 3 2 1
0 1 1 1 0 0 0 0 0 0 0 0 1 3 4 5 5 5 7 10 10 7 4 3 3 3 3 4 4 3 2 1 0 0 0 0 0 2 3 4 3 2 2
0 1 2 2 1 0 0 1 0 0 0 0 0 2 4 5 5 6 8 9 9 7 5 4 5 4 2 2 2 2 2 2 0 0 0 0 0 2 4 4 3 4 5
0 0 1 1 1 0 1 1 0 0 0 0 0 1 2 4 5 6 8 9 7 6 5 5 6 5 2 1 0 1 1 1 0 0 0 0 2 4 4 3 4 5 6
0 0 0 0 0 0 1 0 0 0 1 2 1 2 3 3 5 6 7 8 7 5 5 6 7 5 3 1 0 0 0 0 0 0 0 1 3 5 5 4 4 5 5
0 0 0 0 0 0 1 1 1 0 1 2 2 2 3 4 4 5 5 6 7 6 6 7 7 6 4 2 1 1 1 0 0 0 0 1 4 7 8 7 5 4 4
0 0 0 0 0 0 0 2 2 2 2 2 3 3 3 3 2 2 3 5 7 6 5 7 8 8 7 6 6 5 3 1 1 1 1 3 5 8 9 8 6 4 4
0 0 0 0 0 0 0 1 3 3 2 2 3 4 3 1 0 0 1 4 6 5 5 7 9 10 10 9 10 9 5 3 3 3 3 6 9 10 10 8 5 4 3
0 0 0 0 0 0 0 0 1 1 1 1 1 2 1 0 0 0 1 3 5 4 5 7 7 8 8 8 8 8 5 4 4 3 4 9 13 12 10 7 5 4 3
0 0 0 0 0 0 0 0 0 0 0 0 0 0 0 0 0 0 1 3 3 3 3 4 4 4 5 5 4 3 3 3 3 2 4 12 15 14 11 8 6 4 4
1 0 0 0 0 0 0 0 0 0 0 0 0 0 0 0 0 0 1 2 2 1 1 1 1 1 3 4 3 2 2 3 3 1 5 12 16 15 13 11 8 6 5
1 0 0 0 0 0 0 0 0 0 0 0 0 0 0 0 0 1 1 1 1 0 0 0 1 1 3 4 3 3 3 3 3 3 5 10 15 17 17 15 12 9 7
1 0 1 1 0 0 1 2 1 0 0 1 0 0 1 1 2 1 1 0 0 0 1 1 2 3 3 3 3 3 3 4 4 3 4 7 13 18 19 17 16 13 10
0 1 2 2 1 1 3 4 3 1 0 0 0 1 2 3 3 2 2 1 1 1 1 2 3 3 2 2 2 2 3 4 4 4 3 5 10 15 18 17 16 15 14
1 2 3 3 2 2 3 4 3 1 0 0 0 1 2 3 3 4 3 3 3 2 1 1 2 2 1 1 1 1 2 3 3 3 3 3 6 9 13 16 16 16 16
4 4 4 4 4 4 4 4 3 1 0 0 0 1 2 3 4 4 5 5 5 3 2 1 1 2 2 1 1 2 2 1 1 1 1 2 3 5 8 11 15 17 17
9 7 6 6 7 7 6 5 3 1 0 0 0 1 2 3 3 4 4 5 5 4 3 2 2 3 2 2 2 3 2 1 0 0 0 1 2 3 4 6 9 13 15
14 12 10 10 9 8 8 6 4 1 0 0 0 1 2 3 3 3 3 4 3 3 3 4 4 3 2 2 3 3 2 1 0 0 0 1 2 3 4 3 5 7 8
17 15 13 11 9 8 7 6 5 3 1 1 1 1 2 3 3 3 3 3 2 2 4 6 6 5 4 4 5 3 1 0 0 0 0 1 2 3 4 5 6 6 6
18 15 13 10 8 7 6 6 6 5 4 2 1 1 1 3 3 3 3 2 1 1 3 6 8 8 7 6 5 4 2 1 1 2 1 0 1 1 3 5 7 9 9
20 17 13 11 10 8 8 7 7 6 5 3 1 1 2 3 4 4 3 2 1 1 3 6 8 10 9 7 5 4 3 3 3 3 2 1 1 1 2 4 7 9 10
25 22 18 14 12 11 10 9 7 6 5 3 2 3 5 6 5 5 4 4 3 3 4 6 8 9 9 8 6 5 4 3 3 3 3 3 3 3 3 3 5 7 8
29 26 21 15 13 13 13 10 7 6 6 5 4 6 7 7 6 6 6 5 5 5 5 5 7 9 10 9 7 6 5 4 3 3 3 3 4 4 3 2 3 5 6
Wind_Speed
1 2 4 5 5 5 6 6 6 7 7 8 9 9 9 9 10 11 12 12 13 13 12 12 12 11 11 11 11 11 12 12 12 12 12 12 11 11 11 11 10 8 11
3 2 6 6 7 7 7 7 7 7 8 8 9 9 9 9 10 11 12 13 13 13 12 12 11 11 11 11 10 10 11 11 11 11 11 10 10 10 10 10 9 7 11
4 3 5 7 7 8 8 7 7 7 8 8 8 9 8 9 10 11 12 12 13 12 12 11 11 11 10 10 9 9 9 10 9 9 8 5 6 10 10 11 10 10 10
5 3 5 8 8 8 8 8 8 8 8 8 8 8 8 9 10 11 11 12 12 12 11 11 11 10 9 9 9 9 8 8 8 7 4 3 4 9 10 10 11 10 9
5 3 5 9 9 9 8 8 8 9 8 8 8 8 8 8 9 10 10 11 11 11 10 10 10 10 9 8 8 8 8 7 6 5 3 3 3 8 10 11 11 10 10
5 4 5 10 9 9 9 9 8 8 8 8 8 8 8 8 8 9 9 9 9 9 9 9 9 8 8 8 8 8 7 6 5 3 3 3 3 8 10 11 11 11 10
5 3 5 9 9 8 9 9 9 9 8 8 8 8 7 7 8 8 9 9 9 8 8 8 8 7 7 7 7 6 6 6 4 3 3 3 4 8 10 10 11 11 10
6 4 4 8 9 8 9 9 9 9 8 8 7 7 6 7 8 8 8 8 8 8 7 7 6 7 7 6 6 5 5 4 4 4 3 3 6 9 11 11 11 11 10
6 4 3 3 5 7 8 8 8 9 8 7 7 7 6 7 8 7 7 7 7 7 6 6 5 5 6 5 5 4 5 4 3 2 3 3 7 10 11 12 12 11 10
5 4 3 2 2 2 3 7 8 8 7 7 7 7 7 7 7 7 6 6 6 5 5 4 4 5 5 5 4 5 4 3 2 2 2 4 9 10 11 11 12 11 10
5 3 3 3 2 2 2 5 5 6 5 5 5 7 6 2 2 3 4 5 6 5 4 3 2 3 4 4 4 4 3 1 2 1 1 5 8 10 11 11 11 10 10
5 3 3 3 2 2 2 2 1 2 2 2 2 3 2 2 2 2 2 4 5 5 3 3 3 2 2 2 3 2 1 2 1 1 2 6 8 10 10 10 10 10 9
5 5 3 3 3 2 2 2 1 1 1 2 3 2 2 2 1 2 1 1 2 2 2 3 2 2 2 2 1 1 2 2 1 1 2 7 7 9 10 10 10 9 9
6 4 3 3 3 2 2 2 1 1 1 2 2 3 2 2 2 2 2 2 1 1 2 1 1 2 2 2 2 2 2 2 1 1 3 7 8 9 9 9 9 9 9
5 4 4 3 3 2 2 1 2 1 2 2 2 2 3 2 2 2 2 2 1 1 1 1 1 1 1 1 1 3 3 3 2 2 2 6 8 8 9 9 9 9 8
5 4 4 4 3 3 2 2 2 2 2 2 2 3 3 2 3 2 2 2 2 1 1 1 2 1 1 1 1 1 2 2 2 2 2 3 6 7 8 8 9 9 9
6 5 4 4 3 3 3 2 2 2 2 2 2 2 3 3 3 3 2 1 1 1 1 1 2 1 1 1 1 1 1 2 2 2 2 2 2 5 7 8 8 8 8
6 5 4 5 4 3 2 2 2 2 2 2 1 2 3 3 3 3 2 1 1 1 1 1 1 1 1 1 1 1 0 1 2 2 2 2 2 2 4 7 7 7 8
7 6 5 4 4 3 2 1 1 1 1 1 1 2 2 2 2 2 1 1 1 1 1 1 1 1 1 1 1 1 1 0 1 1 2 2 2 2 2 4 6 7 7
7 6 6 4 4 3 2 1 1 2 1 1 1 1 1 1 2 2 1 1 1 2 1 1 1 1 1 0 1 2 1 1 0 1 2 1 2 3 3 3 2 4 7
6 6 6 5 4 3 2 1 1 0 0 0 0 1 1 1 1 2 1 1 1 1 1 1 1 1 1 1 2 2 3 2 1 1 0 1 1 2 2 3 2 2 3
7 7 6 6 4 3 2 2 2 2 1 1 0 0 1 1 1 2 2 1 1 1 1 1 1 1 0 0 1 1 2 4 3 2 1 0 1 0 1 2 3 3 2
8 8 7 6 5 4 3 2 1 2 1 1 1 0 1 1 1 1 2 2 1 1 1 1 1 2 1 1 1 2 2 1 2 3 2 1 1 0 1 1 2 3 3
8 7 6 6 5 4 4 3 3 2 2 2 1 1 1 1 1 1 1 2 1 1 1 1 1 1 1 1 1 0 2 3 1 2 3 2 1 1 1 1 2 2 2
8 7 6 6 5 4 4 4 4 3 2 1 1 1 1 1 1 1 1 2 1 1 1 0 1 1 1 1 1 0 0 1 1 2 2 3 2 2 2 2 2 2 3
7 7 6 6 5 5 4 4 4 4 3 2 1 1 1 0 0 0 1 1 1 1 1 1 1 1 1 1 1 1 1 1 1 2 2 2 2 3 2 1 1 2 2
Wind_Direction
209 202 125 115 109 102 102 104 102 101 103 104 104 106 107 113 119 125 129 132 132 133 133 134 136 137 136 135 133 133 136 134 133 133 133 132 133 132 129 130 128 126 127
167 152 115 107 106 102 103 107 107 108 110 113 112 110 108 114 122 126 129 132 132 133 134 136 137 137 137 136 135 134 135 137 138 138 136 137 139 138 135 132 133 135 133
134 127 110 104 104 102 102 104 106 109 115 118 117 115 114 115 122 127 129 132 133 134 135 138 141 142 141 139 135 133 135 140 144 142 139 137 142 141 140 137 138 140 138
131 119 111 106 101 99 98 100 102 106 112 119 121 121 121 120 123 128 131 133 136 138 140 141 144 146 146 144 142 142 144 149 150 147 142 140 144 145 146 144 144 146 144
121 117 116 106 100 95 94 96 100 106 113 119 121 124 125 123 126 130 133 135 138 142 144 146 147 148 149 151 149 150 151 150 153 146 138 142 146 154 154 153 153 153 151
120 121 117 109 102 95 95 98 101 107 114 119 122 126 128 128 131 134 134 139 142 144 146 147 148 151 154 156 158 158 161 160 154 145 146 149 159 161 161 162 161 159 157
118 115 115 110 104 99 99 100 101 106 112 115 117 124 130 135 135 137 140 143 146 148 148 148 150 153 161 163 161 162 163 167 151 143 156 168 169 164 168 168 167 165 164
123 117 113 111 107 104 104 105 105 107 112 116 118 121 128 140 148 149 148 147 149 151 153 157 161 167 175 176 169 164 166 164 147 152 168 185 176 175 178 176 172 169 167
117 110 98 107 108 110 110 109 109 108 109 113 120 124 128 139 152 153 152 156 155 159 164 165 170 182 189 188 180 164 158 149 136 156 180 186 181 181 182 180 177 175 173
106 105 102 92 83 91 107 113 112 108 109 108 111 118 122 131 143 155 159 159 156 162 167 174 189 197 196 192 180 165 161 149 127 164 186 184 182 180 180 179 177 177 178
105 101 98 95 92 97 103 109 112 112 108 106 110 121 120 88 108 145 158 157 157 150 161 171 171 180 185 171 170 174 168 129 127 153 168 175 176 178 179 174 173 176 177
118 118 108 107 110 100 97 87 68 87 83 76 81 98 86 75 76 96 128 140 149 146 141 121 95 92 112 118 140 153 115 123 126 159 173 174 176 175 173 170 175 178 181
129 122 118 120 112 104 84 91 58 55 69 80 84 91 85 71 63 58 58 62 95 110 84 81 68 66 87 111 123 128 133 135 154 180 170 170 179 181 176 176 177 180 187
118 120 114 108 101 95 99 98 89 71 77 85 85 97 101 93 83 86 79 65 64 75 94 78 70 79 101 118 146 142 138 150 155 174 178 175 177 179 179 179 184 188 193
124 122 123 113 99 90 90 94 95 76 89 99 98 102 112 108 103 101 95 88 81 82 90 95 89 87 109 139 151 149 152 158 166 171 186 181 177 180 183 183 188 194 199
135 137 128 113 104 96 92 88 95 96 90 89 92 98 108 110 106 106 94 89 83 87 106 114 107 107 129 132 118 132 150 158 163 162 180 189 185 184 190 192 193 199 203
148 145 137 129 112 100 93 89 91 96 100 94 91 92 107 112 113 111 101 88 72 76 82 84 76 66 80 77 76 91 136 157 168 177 186 188 193 193 192 193 195 199 205
145 142 145 133 116 104 101 95 90 87 94 98 101 100 109 120 122 112 105 112 109 85 77 95 84 64 44 44 33 13 93 145 166 178 188 190 198 210 205 201 199 204 209
151 146 144 135 131 122 108 91 86 88 89 89 92 102 111 108 107 109 112 118 101 83 73 88 77 97 80 26 356 360 351 74 194 192 195 198 199 201 208 217 212 211 214
153 148 149 145 143 136 110 77 52 58 65 69 91 109 103 106 115 111 113 95 96 87 64 68 79 72 105 44 15 8 343 303 288 211 222 221 211 204 205 219 227 232 223
154 150 154 152 158 143 124 123 125 148 232 270 195 133 126 128 118 111 101 87 101 107 118 107 97 69 33 58 54 4 350 343 343 281 240 215 225 213 206 213 215 233 236
166 163 160 165 167 168 171 171 168 166 192 198 237 96 154 149 152 130 130 124 122 109 67 83 111 88 318 84 117 70 0 348 351 345 357 109 235 233 217 212 205 213 226
173 173 171 174 173 176 170 138 107 67 34 25 9 312 252 170 155 146 142 145 152 149 175 200 160 148 220 292 140 137 144 246 314 329 344 14 3 321 267 249 214 213 211
179 173 169 171 173 174 160 149 151 157 179 213 214 221 248 209 168 153 157 157 163 151 172 227 168 164 156 265 312 195 175 169 160 312 325 331 321 296 273 267 244 226 217
176 172 169 168 173 174 160 158 157 167 186 196 190 202 228 240 205 181 160 153 156 152 166 145 115 127 152 175 209 246 61 87 140 162 281 314 329 300 271 249 246 237 228
168 169 170 170 177 173 169 168 166 173 173 169 197 206 228 241 251 233 158 166 176 166 167 157 143 130 147 159 183 167 154 166 206 174 217 264 289 294 293 273 254 248 238